Location: Newark
(39.0622°N, 106.5590°E)
Time: 13:39:08
(UTC+00:00)

UWE-3 - Pass Details

Date: 21 February 2020
Orbit: 585 x 683 km, 97.6° (Epoch: 06 April)

Event Time Altitude Azimuth Distance (km) Brightness Sun altitude
Rises 21:27:07 0° 27° (NNE) 3,038 ? -26.0°
Reaches altitude 10° 21:29:47 10° 42° (NE) 2,126 ? -25.5°
Maximum altitude 21:33:27 23° 94° (E) 1,449 ? -24.8°
Drops below altitude 10° 21:37:07 10° 146° (SE) 2,119 ? -24.1°
Sets 21:39:46 0° 161° (SSE) 3,025 ? -23.6°
